Tracking 17143 objects as of 29-June-2015
HD Live streaming from Space Station

H-1 R/B(1)

Track H-1 R/B(1) now!
10-day predictions
H-1 R/B(1) is classified as:


NORAD ID: 20230
Int'l Code: 1989-070B
Perigee: 191.5 km
Apogee: 9,049.1 km
Inclination: 28.2 °
Period: 191.1 minutes
Semi major axis: 10991 km
RCS: 2.9914 m2 (large)
Launch date: September 5, 1989
Source: Japan (JPN)

Note: This is a ROCKET BODY
Your satellite tracking list
Your tracking list is empty





NASA's NSSDC Master Catalog

Two Line Element Set (TLE):
1 20230U 89070B   15180.66368568  .00139390 -93666-7  10064-2 0  9990
2 20230 028.2419 278.7255 4029367 056.7109 039.6417 07.53409565446648

Source of the keplerian elements: AFSPC

N2YO: 275